Other Public Products
Issued by NWS Charleston, SC

Current Version | Previous Version | Graphics & Text | Print | Product List | Glossary On
Versions: 1 2 3 4 5 6 7 8 9 10 11 12 13 14 15 16 17 18 19 20 21 22 23 24 25 26 27 28 29 30 31 32 33 34 35 36 37 38 39 40 41 42 43 44 45 46 47 48 49 50
000 FPUS82 KCHS 240812 OPUCHS TEST...KCHS/KSAV Gateway Observations...TEST National Weather Service Charleston SC 400 AM EDT TUE OCT 24 2017 NOTE: "fair" indicates few or no clouds below 12,000 feet with no significant weather and/or obstructions to visibility. SCZ050-WAZ558-NCZ071-TXZ119-213-PAZ071-DCZ001-FLZ074-172-MI076- NYZ176-178-MAZ016-IL014-TNZ027-NJZ106-GAZ044-MD014-240900- ...Gateway Observations for Charleston International... CITY SKY/WX TMP DP RH WIND PRES REMARKS Chas Airport PTCLDY 65 62 90 NW7 29.87R Seattle CLEAR 52 48 86 NE9 30.62R Charlotte CLEAR 54 54 100 SW5 29.84S Dallas DFW CLEAR 58 41 53 N8 30.25R Dallas Love CLEAR 59 40 49 N6 30.26R Philladelphia CLOUDY 74 65 73 S15G26 29.79F Wash National LGT RAIN 65 63 93 S17 29.74R FOG Baltimore LGT RAIN 71 67 87 S12G30 29.71F Miami CLOUDY 80 75 84 S3 29.93F Detroit CLOUDY 49 46 90 SW12 29.54S Newark CLOUDY 69 66 90 SE16G26 29.86F Laguardia CLOUDY 70 65 84 SE18G31 29.88F J F K CLOUDY 67 67 100 SE20G29 29.90F Boston Logan CLOUDY 64 61 90 SE12 30.06F Ft. Lauderdale CLOUDY 79 74 84 S6 29.91F Chicago O`Hare LGT RAIN 48 45 89 W10 29.54F Chicago Midway LGT RAIN 49 47 93 W10 29.55F FOG Houston Bush CLEAR 58 54 86 CALM 30.15R Houston Hobby CLEAR 60 53 77 W3 30.13R Nashville PTCLDY 54 45 71 W5 29.86S Atlanta CLEAR 51 51 100 W8 29.93F $$ GAZ044-118-TXZ119-213-NCZ071-DCZ001-MDZ014-506-PAZ021-071-NJZ106- NYZ176-178-MAZ106-OHZ011-021-055-MIZ076-KYZ091-ILZ014-INZ047- MNZ060-ONZ431-240900- ...Gateway Observations for Savannah International... CITY SKY/WX TMP DP RH WIND PRES REMARKS Savannah Arpt MOCLDY 63 57 81 NW8 29.91S Atlanta CLEAR 51 51 100 W8 29.93F Charlotte CLEAR 54 54 100 SW5 29.84S Dallas DFW CLEAR 58 41 53 N8 30.25R Houston Bush CLEAR 58 54 86 CALM 30.15R Wash National LGT RAIN 65 63 93 S17 29.74R FOG Wash Dulles LGT RAIN 60 60 100 S10 29.73S Baltimore LGT RAIN 71 67 87 S12G30 29.71F Philadelphia CLOUDY 74 65 73 S15G26 29.79F Newark CLOUDY 69 66 90 SE16G26 29.86F Laguardia CLOUDY 70 65 84 SE18G31 29.88F J F K CLOUDY 67 67 100 SE20G29 29.90F Boston CLOUDY 64 61 90 SE12 30.06F Pittsburg CLOUDY 56 51 84 SW16 29.66R Akron CLOUDY 52 47 83 W15G25 29.64R Cleveland LGT RAIN 51 48 89 SW12 29.63R Cincinnati LGT RAIN 47 47 100 S7 29.71F Columbus CLEAR 46 46 99 SW9 29.70F Detroit CLOUDY 49 46 90 SW12 29.54S Chicago O`Hare LGT RAIN 48 45 89 W10 29.54F Minneapolis MOCLDY 42 32 67 NW18G29 29.83S Indianapolis LGT RAIN 49 47 93 SW14 29.67S Toronto Canada CLOUDY 59 55 88 S10 29.48F $$

USA.gov is the U.S. government's official web portal to all federal, state and local government web resources and services.